SL-16 DEB, 22445

Orbit data source: Space-Track

SL-16 DEB, 22445 is space debris in LEO originally from a launch on Fri, 25 Dec 1992 UTC launched from the Tyuratam Missile And Space Complex (TTMTR). Debris objects in space refer to the collection of defunct objects orbiting the Earth. Examples of debris include non-operational satellites, rocket bodies, and fragments generated from explosions, collisions, or faulty payload assembly.

Loading next visibility...
Identifier
22445, 1992-093EN
Orbit
LEO
Country
Flag of CISCIS
Related business
Manufacturer
Unknown
Mission
Spacecraft
Bus & Motor
Unknown
Mass
Unknown
Launch date (UTC)
1992-12-25 (33 years ago)
Launch vehicle
Unknown
Launch site
Tyuratam Missile And Space Complex (TTMTR)
Object type
Payload
Rocket body
Debris
Shape & HBR
Unknown shape, 0.1 m
Radar Cross Section
Small (<0.1 m²)

Expand to show TLE details & history
Last TLE update: 18 hours ago

TLE from 18 hours ago
0 SL-16 DEB
1 22445U 92093EN  25352.51460381  .00000311  00000-0  17855-3 0  9999
2 22445  71.2889  17.1825 0071695 108.8773 252.0143 14.15298130692839
Epoch: 2025-12-18T12:21Z
TLE epoch observation values (Epoch: 2025-12-18T12:21:01.769Z)
Latitude
-0.00002°
Longitude
104.55611°
Altitude
860.037 km
Speed
7.414 km/s
True Right ascension
01h 08m 43s
True Declination
0° 00' 00"
Sunlit
Object was in daylight at epoch
Visualization orbit readout
Latitude
Unknown
Longitude
Unknown
Altitude
Unknown
Speed
Unknown
Apparent Right ascension
Unknown
Apparent Declination
Unknown
Sunlit
N/A
Visualization observer readout
Local Sidereal Time
05:39:06
Azimuth
Unknown
Elevation
Unknown
Doppler factor
Unknown
Orbital elements
Apogee altitude
890.939 km
Perigee altitude
787.45 km
Semi-major axis
7,217.331 km
Eccentricity
0.00717
Inclination
71.2889°
RAAN
17.1825°
Arg. of periapsis
108.8773°
True anomaly
251.23506°
Mean anomaly
252.0143°
Eccentric anomaly
251.62446°
Mean motion
3.5398 °/min
Orbital period
101.7 mins
BSTAR
0.00017855
Loading maneuver chart data...
Computing Atmospheric mass density...
Loading historical data...
Loading historical data...
Loading historical data...
Loading historical data...
Loading historical data...
Loading historical data...
Loading historical data...

Documentation

Showing up to 5 results
|